Wind_Speed
23 23 23 24 23 22 21 21 20 20 20 19 19 19 18 18 17 16 16 16 16 16 16 16 16 16 16 17 17 17 17 17 18 18 18 18 18 18 18 17 17 16
22 22 22 23 22 21 20 20 19 18 19 18 18 17 17 16 16 17 17 17 17 17 17 18 18 18 18 19 19 19 19 19 19 20 20 20 20 20 19 20 19 19
22 21 21 21 21 20 19 18 18 18 18 17 17 17 17 17 18 18 18 19 19 19 19 20 20 20 20 21 21 21 22 22 22 23 23 23 23 23 22 22 22 22
21 20 20 20 19 19 18 17 18 18 17 17 17 17 17 17 17 18 18 18 19 19 19 20 20 21 21 22 22 23 23 24 24 25 25 25 25 25 25 25 25 25
19 19 19 18 18 17 16 16 17 16 16 16 16 16 16 16 17 17 17 17 17 18 18 19 20 20 21 21 22 23 24 24 25 25 26 26 26 27 27 27 27 27
18 17 17 16 15 14 14 15 15 14 14 15 15 15 15 16 16 16 16 16 16 17 18 18 19 20 20 21 22 22 23 23 24 24 25 26 26 26 26 27 28 28
16 15 14 13 12 11 11 12 12 12 13 13 13 13 14 15 15 15 15 16 16 17 18 19 19 20 21 21 22 23 23 23 24 25 25 26 27 27 27 27 28 29
13 12 11 10 9 9 8 9 9 10 11 12 13 14 15 16 17 17 17 18 18 19 19 19 20 20 21 21 22 23 23 23 24 25 26 27 27 28 28 28 28 29
11 10 8 7 6 5 5 6 7 8 10 12 14 15 16 17 18 18 18 19 19 20 20 20 20 21 21 21 22 22 23 24 24 25 25 26 27 27 28 28 28 28
9 8 6 4 3 2 3 4 6 8 10 12 14 16 17 17 18 18 19 19 20 20 21 21 21 22 22 22 22 22 23 24 24 24 25 25 26 26 26 26 26 27
8 7 5 3 2 0 2 4 6 8 10 13 15 16 17 18 18 19 19 20 20 21 21 21 21 21 22 22 22 22 23 23 24 25 25 25 25 25 25 25 25 26
8 7 5 4 3 2 3 4 6 8 11 13 15 16 17 18 18 19 20 20 20 20 21 21 21 21 21 22 22 22 23 23 24 25 25 26 26 26 25 25 25 25
9 8 7 6 5 5 5 5 7 9 11 13 15 16 17 18 19 20 20 20 20 20 20 20 21 21 21 21 22 22 23 24 25 25 26 26 26 26 26 25 25 25
11 10 9 8 8 7 7 7 8 10 12 13 15 16 18 19 20 20 20 21 21 21 20 21 20 20 21 22 22 23 23 24 25 25 26 27 26 25 25 25 26 25
13 12 11 11 10 9 9 9 9 11 13 14 15 17 18 19 20 20 21 21 21 21 21 21 21 21 21 21 21 22 22 23 25 25 25 26 26 26 25 24 24 23
15 14 13 13 12 11 11 10 11 12 13 14 16 17 19 20 20 21 21 21 21 21 21 21 21 20 20 20 19 19 20 21 22 22 21 22 24 25 24 21 19 18
17 16 15 15 14 13 12 11 12 13 13 15 16 18 19 20 20 21 21 21 21 21 22 21 20 20 19 19 17 16 17 18 19 18 18 19 19 20 19 18 17 16
19 19 18 17 16 14 13 12 12 13 14 16 17 19 19 20 20 21 21 21 21 21 21 21 20 19 19 18 18 16 15 16 17 16 17 18 17 16 17 17 17 17
21 20 19 18 16 15 13 13 13 13 14 17 18 19 20 20 20 21 20 21 21 21 22 22 21 20 19 18 18 17 15 15 16 16 18 19 16 15 16 16 16 17
23 22 20 19 17 15 14 13 13 13 15 17 19 19 20 20 20 21 21 21 21 22 23 23 21 20 20 19 18 18 16 15 16 17 20 22 18 15 15 15 15 15
24 22 20 18 16 14 14 13 13 14 16 18 19 19 20 20 21 21 21 21 22 22 24 23 21 20 20 19 18 18 16 15 17 19 20 20 17 15 15 15 15 15
24 22 20 17 15 14 14 13 14 15 17 18 19 19 20 20 21 21 22 22 22 23 24 24 22 20 19 19 19 17 16 16 17 17 17 17 16 16 16 15 15 16
23 21 18 16 15 14 14 14 15 16 17 19 19 20 20 20 22 22 22 23 23 23 24 25 23 20 19 19 18 17 16 17 16 17 17 18 18 17 17 17 18 21
22 19 17 15 15 15 14 15 15 16 17 18 19 20 21 21 22 23 22 23 23 22 23 24 23 20 18 19 18 16 16 16 17 19 22 21 20 19 19 22 26 27
20 18 16 15 15 15 14 15 16 16 17 18 18 20 21 22 22 23 23 23 22 22 21 21 22 20 18 18 18 16 15 16 17 20 22 22 21 24 27 30 30 29
19 17 16 15 15 15 15 15 15 16 17 18 19 20 21 22 22 23 24 24 22 22 21 20 21 21 19 18 18 16 15 17 18 19 22 24 27 30 32 30 28 28
Wind_Direction
106 104 101 97 94 91 88 85 81 77 73 68 64 60 54 50 45 40 37 34 31 28 25 21 18 15 12 9 7 5 4 3 1 360 359 356 354 352 350 347 346 343
105 102 99 96 93 89 84 81 76 71 68 63 58 53 47 41 34 29 26 23 20 17 15 12 9 6 4 2 0 358 358 358 356 354 354 352 349 348 346 344 342 341
105 101 97 93 90 86 81 76 70 65 60 56 50 43 36 30 24 19 16 13 10 7 6 4 1 359 357 356 354 354 354 353 352 350 349 349 347 345 345 342 341 339
106 101 96 91 87 83 77 71 65 59 53 48 43 35 28 22 16 11 8 5 2 360 358 356 354 352 351 350 349 349 350 350 349 347 345 345 344 343 342 341 339 338
106 100 95 90 85 80 75 69 63 57 50 44 38 31 23 18 11 5 2 357 354 352 351 350 349 348 346 346 346 346 346 345 345 343 342 341 341 340 340 339 337 336
106 100 95 89 85 80 74 68 61 53 46 39 33 26 19 13 7 2 358 353 350 348 347 346 346 345 345 345 345 345 345 343 342 341 339 338 337 337 337 335 334 332
109 104 99 95 90 82 71 63 53 45 39 33 26 19 13 8 4 360 356 354 351 349 348 347 346 346 346 346 346 345 345 344 342 340 338 337 336 335 335 334 331 329
118 114 109 102 92 78 64 55 45 37 32 24 17 11 7 3 359 356 354 352 352 351 350 349 348 348 348 347 347 345 344 343 342 340 338 336 335 334 333 332 330 327
129 124 117 108 93 76 58 46 34 27 22 14 9 4 360 357 354 352 351 350 350 349 348 348 348 348 348 348 347 345 343 342 341 339 337 335 333 331 330 329 327 324
143 139 137 130 109 77 44 31 21 15 10 4 0 356 353 351 350 348 348 347 347 346 346 346 346 346 347 347 346 344 342 340 339 337 334 332 330 328 326 325 322 319
166 168 167 166 156 37 359 3 3 1 358 354 351 348 346 345 344 343 343 343 344 343 343 343 343 345 345 345 344 343 341 338 336 334 332 329 327 325 323 320 317 315
186 187 191 202 223 266 304 330 343 347 346 343 341 340 339 339 339 339 339 339 340 340 340 341 342 343 344 343 342 341 339 336 334 332 329 327 325 323 321 319 317 315
197 203 211 222 239 262 286 308 327 334 334 334 334 335 335 335 335 336 336 337 337 337 338 338 340 342 343 342 341 340 338 336 333 331 327 325 324 322 322 320 317 316
207 215 222 231 245 262 280 298 313 321 324 326 328 330 331 332 332 332 333 333 333 334 335 336 339 343 344 343 342 341 339 335 331 328 326 324 323 321 320 320 318 316
215 222 228 237 250 262 275 291 304 311 316 321 325 327 328 329 329 329 329 330 331 332 333 336 340 343 344 344 344 341 336 332 329 327 326 322 320 319 318 318 318 315
221 228 234 242 252 262 272 285 298 305 313 319 322 325 326 326 326 327 327 328 329 331 332 335 340 343 344 343 343 338 332 328 325 321 319 317 315 316 316 315 314 310
226 231 237 243 250 259 269 281 293 302 311 317 321 323 323 324 324 325 326 326 328 330 331 334 338 341 342 341 341 338 332 324 316 311 309 308 308 308 308 309 307 305
228 231 236 242 248 256 268 280 291 301 311 315 318 319 319 322 323 323 324 325 326 328 328 331 338 342 342 342 340 338 333 319 308 304 303 303 302 300 302 303 303 302
228 231 234 239 246 255 267 280 290 300 310 313 315 316 318 320 321 320 322 323 324 327 327 331 339 343 343 343 339 336 332 318 305 301 299 299 297 295 298 299 300 301
227 229 232 238 245 256 268 279 289 300 308 310 311 314 316 318 319 318 320 323 325 327 327 331 340 344 343 341 337 334 331 316 301 298 299 300 299 295 295 297 297 298
225 226 230 237 245 257 268 278 290 300 305 307 309 312 314 316 317 317 319 322 325 327 326 330 339 344 340 336 334 334 327 311 300 301 303 303 300 294 292 294 295 296
223 225 229 237 248 259 270 281 292 300 303 305 308 310 313 315 315 316 319 321 324 327 326 328 337 342 338 333 333 330 322 309 304 304 303 299 295 293 294 292 291 294
221 224 231 241 252 263 273 284 293 298 300 303 307 309 312 314 314 315 318 320 323 327 325 326 334 339 336 331 330 328 321 311 303 301 301 299 295 294 293 290 292 297
221 226 236 246 256 267 276 285 292 296 299 303 307 309 311 312 312 314 316 319 322 324 325 326 330 335 334 328 327 328 321 309 302 303 305 303 298 295 295 297 300 301
224 231 241 251 260 269 276 283 290 294 298 303 306 308 309 309 311 312 314 316 319 320 323 326 327 331 332 327 327 331 322 309 304 304 304 302 300 302 304 303 302 302
228 235 245 253 261 268 274 282 290 294 298 302 304 305 306 307 309 310 310 313 316 318 324 328 327 328 330 328 330 333 320 308 304 302 303 305 305 306 306 304 302 302
Height
871 872 872 873 873 874 875 875 876 876 876 877 877 878 879 879 879 879 878 878 877 877 877 876 876 876 876 876 875 875 874 873 872 871 871 870 870 869 869 869 868 867
872 873 873 873 874 875 876 876 876 877 877 877 878 879 879 879 879 878 878 877 877 876 876 876 875 875 875 874 874 874 872 871 871 870 869 869 869 868 868 867 866 865
873 873 874 874 874 875 876 876 877 877 878 878 878 879 879 878 878 878 877 877 876 875 875 875 874 874 874 873 873 872 871 870 869 868 868 867 867 866 866 865 864 863
873 874 874 874 874 875 876 876 877 877 878 878 878 879 879 878 878 878 877 876 876 875 875 874 874 873 873 872 871 870 869 868 867 866 866 865 865 864 863 863 862 861
873 873 874 874 874 875 876 877 877 878 879 879 879 879 879 879 878 878 877 877 876 876 875 874 874 873 872 871 870 869 868 867 866 865 864 864 863 862 861 861 859 858
872 873 873 874 875 876 877 877 878 879 879 879 879 879 879 879 879 878 877 877 876 875 874 873 873 872 870 870 868 867 867 866 865 864 863 862 862 861 860 859 857 856
872 873 873 874 875 876 877 877 878 878 878 879 879 879 879 878 878 877 876 876 875 874 873 872 871 870 869 867 867 866 865 864 863 862 861 860 859 858 858 857 855 854
871 872 873 874 875 876 877 877 877 878 878 878 877 877 877 876 875 875 874 873 872 871 870 869 868 867 866 865 864 863 862 861 860 859 858 857 856 855 854 854 852 851
871 872 873 874 875 875 876 876 876 877 876 876 876 875 875 874 873 873 872 871 870 869 868 867 866 865 864 863 862 861 860 859 858 857 856 855 854 853 852 851 850 848
870 871 872 873 874 874 875 875 875 875 875 874 874 874 873 873 872 871 870 869 868 867 866 865 864 863 862 861 860 859 858 857 856 855 854 853 852 851 850 849 848 846
869 870 871 872 873 873 873 874 874 873 873 873 873 872 872 871 870 869 868 867 866 865 864 863 862 861 860 859 858 857 856 855 854 853 852 851 850 849 848 847 846 844
868 869 870 870 871 872 872 872 872 872 872 872 871 871 870 869 869 868 867 866 864 863 863 862 861 860 859 858 856 855 854 853 852 850 849 848 847 846 845 844 843 842
867 867 868 869 870 870 871 871 871 871 870 870 870 869 869 868 867 866 865 864 863 862 861 860 859 858 857 856 854 853 852 850 849 848 846 845 844 843 842 841 840 839
865 866 867 868 869 869 870 869 869 869 869 869 868 868 867 866 865 864 863 862 861 860 859 858 857 856 855 854 852 850 849 848 846 845 844 842 842 841 840 839 837 836
863 864 865 866 867 867 868 868 868 868 868 867 867 866 865 864 863 862 860 859 858 857 857 856 855 854 853 851 850 849 847 846 844 843 842 840 839 838 837 836 835 834
861 862 863 864 865 866 866 866 866 866 866 865 864 863 863 861 860 859 858 857 856 855 854 853 853 852 851 850 849 848 846 845 843 841 840 839 837 835 834 833 833 831
859 860 862 863 863 864 865 865 865 864 864 863 862 861 860 859 858 857 856 855 854 853 852 851 851 850 849 848 847 846 845 843 842 840 839 837 836 834 833 831 830 829
857 858 860 861 861 862 863 863 863 862 861 860 859 858 857 856 855 854 853 852 851 850 849 849 849 848 847 845 844 844 843 842 840 838 837 835 834 832 831 829 828 826
855 856 858 859 860 860 861 860 860 859 858 857 856 856 855 854 853 851 851 850 849 848 847 846 846 845 844 843 842 841 841 840 838 836 835 833 832 830 829 827 826 824
853 854 856 856 858 858 858 858 857 856 856 854 854 853 852 851 850 849 848 847 846 845 844 843 844 842 841 840 839 838 838 837 836 834 832 830 829 828 826 825 824 822
850 852 853 854 855 856 855 855 854 853 853 852 851 850 849 848 847 846 845 844 844 843 841 841 841 840 839 838 837 836 835 835 833 831 829 827 826 825 824 823 822 821
848 849 851 852 853 853 852 852 851 850 850 849 848 847 846 846 844 843 842 841 841 840 839 838 838 838 837 835 834 833 833 831 830 828 826 825 823 822 821 820 820 819
846 847 848 849 850 849 849 848 848 848 847 846 845 844 843 843 841 840 840 839 838 838 836 835 835 835 834 833 832 831 830 829 827 825 824 822 821 820 819 818 817 815
843 845 846 846 846 846 846 845 845 845 844 843 842 841 840 840 839 837 837 836 836 835 834 833 832 832 832 830 829 828 827 826 824 822 821 819 818 817 816 814 813 811
841 842 843 843 843 843 843 843 842 842 841 840 839 838 837 837 836 835 834 833 833 833 833 831 829 829 829 828 826 826 825 824 822 820 818 816 815 813 812 810 809 807
838 839 839 840 840 840 840 840 839 839 838 837 837 836 835 834 833 832 831 830 830 830 830 829 827 826 826 825 823 823 823 822 820 818 815 813 811 810 807 806 805 803